• In Belarus
  • List of Countries
  • For 7 days
  • Water Temperature
  • Weather Map
  • Weather Widgets
  • user-avatar
    Login

    Hourly Weather Liverpool

    Today, 18 February, Tuesday

    Time Temperature Precipitation Wind Pressure Humidity
    00:00 +2°C° 0 mm 8 mps 758 mmHg 76%
    01:00 +2°C° 0 mm 8 mps 758 mmHg 76%
    02:00 +2°C° 0 mm 8 mps 758 mmHg 77%
    03:00 +1°C° 0 mm 8 mps 758 mmHg 78%
    04:00 +1°C° 0 mm 8 mps 758 mmHg 77%
    05:00 +1°C° 0 mm 8 mps 758 mmHg 77%
    06:00 +3°C° 0 mm 7 mps 758 mmHg 79%
    07:00 +3°C° 0.1 mm 7 mps 759 mmHg 81%
    08:00 +4°C° 0.1 mm 8 mps 759 mmHg 83%
    09:00 +4°C° 0.1 mm 8 mps 759 mmHg 84%
    10:00 +5°C° 0 mm 8 mps 758 mmHg 79%
    11:00 +6°C° 0 mm 8 mps 758 mmHg 73%
    12:00 +7°C° 0 mm 8 mps 757 mmHg 70%
    13:00 +6°C° 0.2 mm 8 mps 757 mmHg 71%
    14:00 +6°C° 0.2 mm 9 mps 756 mmHg 72%
    15:00 +6°C° 0.2 mm 9 mps 756 mmHg 74%
    16:00 +5°C° 0.2 mm 9 mps 756 mmHg 72%
    17:00 +5°C° 0.2 mm 9 mps 756 mmHg 70%
    18:00 +3°C° 0.2 mm 9 mps 756 mmHg 69%
    19:00 +2°C° 0.1 mm 9 mps 757 mmHg 69%
    20:00 +2°C° 0.1 mm 8 mps 758 mmHg 68%
    21:00 +1°C° 0.1 mm 8 mps 759 mmHg 68%
    22:00 +1°C° 0.1 mm 8 mps 759 mmHg 69%
    23:00 +1°C° 0.1 mm 8 mps 759 mmHg 69%

    Tomorrow, 19 February, Wednesday

    Time Temperature Precipitation Wind Pressure Humidity
    00:00 +1°C° 0.1 mm 8 mps 760 mmHg 70%
    01:00 +1°C° 0.1 mm 8 mps 760 mmHg 70%
    02:00 +1°C° 0.1 mm 8 mps 761 mmHg 71%
    03:00 +2°C° 0.1 mm 7 mps 761 mmHg 72%
    04:00 +2°C° 0 mm 7 mps 761 mmHg 73%
    05:00 +2°C° 0 mm 7 mps 761 mmHg 73%
    06:00 +1°C° 0 mm 6 mps 761 mmHg 74%
    07:00 +2°C° 0 mm 6 mps 761 mmHg 74%
    08:00 +2°C° 0 mm 6 mps 761 mmHg 74%
    09:00 +2°C° 0 mm 5 mps 761 mmHg 75%
    10:00 +3°C° 0.2 mm 5 mps 761 mmHg 79%
    11:00 +3°C° 0.2 mm 5 mps 760 mmHg 83%
    12:00 +3°C° 0.2 mm 5 mps 759 mmHg 88%
    13:00 +5°C° 0.7 mm 5 mps 758 mmHg 88%
    14:00 +5°C° 0.7 mm 6 mps 757 mmHg 89%
    15:00 +5°C° 0.7 mm 6 mps 756 mmHg 89%
    16:00 +6°C° 1 mm 7 mps 755 mmHg 89%
    17:00 +6°C° 1 mm 7 mps 754 mmHg 89%
    18:00 +6°C° 1 mm 8 mps 754 mmHg 89%
    19:00 +8°C° 0.4 mm 7 mps 754 mmHg 89%
    20:00 +8°C° 0.4 mm 7 mps 753 mmHg 88%
    21:00 +8°C° 0.4 mm 7 mps 753 mmHg 88%
    22:00 +8°C° 0.5 mm 7 mps 753 mmHg 88%
    23:00 +8°C° 0.5 mm 7 mps 752 mmHg 88%

    Day after tomorrow, 20 February, Thursday

    Time Temperature Precipitation Wind Pressure Humidity
    00:00 +8°C° 0.5 mm 6 mps 752 mmHg 88%
    01:00 +8°C° 0.2 mm 7 mps 751 mmHg 87%
    02:00 +8°C° 0.2 mm 7 mps 750 mmHg 86%
    03:00 +8°C° 0.2 mm 7 mps 749 mmHg 85%
    04:00 +8°C° 0.1 mm 7 mps 749 mmHg 84%
    05:00 +8°C° 0.1 mm 7 mps 748 mmHg 84%
    06:00 +8°C° 0.1 mm 7 mps 747 mmHg 84%
    07:00 +6°C° 1.4 mm 8 mps 747 mmHg 86%
    08:00 +5°C° 1.4 mm 8 mps 747 mmHg 89%
    09:00 +5°C° 1.4 mm 8 mps 747 mmHg 92%
    10:00 +3°C° 1 mm 9 mps 749 mmHg 88%
    11:00 +2°C° 1 mm 9 mps 750 mmHg 84%
    12:00 +2°C° 1 mm 9 mps 751 mmHg 80%
    13:00 +2°C° 0.1 mm 10 mps 752 mmHg 73%
    14:00 +2°C° 0.1 mm 10 mps 753 mmHg 65%
    15:00 +2°C° 0.1 mm 10 mps 754 mmHg 58%
    16:00 +2°C° 0.1 mm 10 mps 754 mmHg 60%
    17:00 +1°C° 0.1 mm 10 mps 755 mmHg 62%
    18:00 +1°C° 0.1 mm 10 mps 756 mmHg 64%
    19:00 +1°C° 0.1 mm 10 mps 757 mmHg 65%
    20:00 +1°C° 0.1 mm 10 mps 758 mmHg 67%
    21:00 +1°C° 0.1 mm 10 mps 759 mmHg 68%
    22:00 +1°C° 0.1 mm 10 mps 760 mmHg 70%
    23:00 +1°C° 0.1 mm 9 mps 760 mmHg 72%

    21 February, Friday

    Time Temperature Precipitation Wind Pressure Humidity
    00:00 +1°C° 0.1 mm 9 mps 761 mmHg 73%
    01:00 +1°C° 0 mm 9 mps 761 mmHg 74%
    02:00 +1°C° 0 mm 8 mps 762 mmHg 75%
    03:00 +1°C° 0 mm 8 mps 762 mmHg 76%
    04:00 +2°C° 0 mm 7 mps 762 mmHg 77%
    05:00 +3°C° 0 mm 7 mps 762 mmHg 78%
    06:00 +3°C° 0 mm 7 mps 762 mmHg 78%
    13:00 +7°C° 0 mm 10 mps 760 mmHg 71%
    14:00 +7°C° 0 mm 10 mps 760 mmHg 71%
    15:00 +7°C° 0 mm 10 mps 759 mmHg 72%
    16:00 +7°C° 0 mm 10 mps 759 mmHg 73%
    17:00 +7°C° 0 mm 10 mps 759 mmHg 74%
    18:00 +8°C° 0 mm 10 mps 758 mmHg 76%
    19:00 +8°C° 0.1 mm 9 mps 758 mmHg 78%
    20:00 +8°C° 0.1 mm 9 mps 758 mmHg 80%
    21:00 +8°C° 0.1 mm 9 mps 758 mmHg 82%
    22:00 +8°C° 0 mm 9 mps 758 mmHg 83%
    23:00 +8°C° 0 mm 9 mps 758 mmHg 83%

    22 February, Saturday

    Time Temperature Precipitation Wind Pressure Humidity
    00:00 +8°C° 0 mm 9 mps 758 mmHg 84%
    01:00 +8°C° 0 mm 9 mps 758 mmHg 85%
    02:00 +9°C° 0 mm 8 mps 757 mmHg 85%
    03:00 +9°C° 0 mm 8 mps 757 mmHg 86%
    04:00 +10°C° 0.2 mm 9 mps 757 mmHg 84%
    05:00 +10°C° 0.2 mm 9 mps 756 mmHg 83%
    06:00 +9°C° 0.2 mm 10 mps 756 mmHg 82%
    07:00 +9°C° 0.1 mm 10 mps 756 mmHg 80%
    08:00 +9°C° 0.1 mm 10 mps 757 mmHg 79%
    09:00 +8°C° 0.1 mm 9 mps 757 mmHg 77%
    10:00 +9°C° 0 mm 10 mps 757 mmHg 72%
    11:00 +9°C° 0 mm 11 mps 758 mmHg 67%
    12:00 +9°C° 0 mm 12 mps 758 mmHg 63%
    13:00 +8°C° 0.1 mm 11 mps 758 mmHg 65%
    14:00 +8°C° 0.1 mm 11 mps 759 mmHg 68%
    15:00 +7°C° 0.1 mm 10 mps 759 mmHg 70%
    16:00 +7°C° 0.1 mm 10 mps 759 mmHg 71%
    17:00 +6°C° 0.1 mm 9 mps 760 mmHg 72%
    18:00 +6°C° 0.1 mm 9 mps 761 mmHg 73%
    19:00 +6°C° 0.1 mm 8 mps 761 mmHg 74%
    20:00 +5°C° 0.1 mm 8 mps 762 mmHg 74%
    21:00 +5°C° 0.1 mm 8 mps 762 mmHg 75%
    22:00 +5°C° 0.1 mm 7 mps 762 mmHg 77%
    23:00 +5°C° 0.1 mm 7 mps 763 mmHg 79%

    23 February, Sunday

    Time Temperature Precipitation Wind Pressure Humidity
    00:00 +5°C° 0.1 mm 7 mps 763 mmHg 80%
    01:00 +4°C° 0.7 mm 6 mps 762 mmHg 83%
    02:00 +4°C° 0.7 mm 6 mps 762 mmHg 86%
    03:00 +5°C° 0.7 mm 5 mps 762 mmHg 90%
    04:00 +5°C° 1.2 mm 4 mps 761 mmHg 91%
    05:00 +5°C° 1.2 mm 3 mps 760 mmHg 93%
    06:00 +6°C° 1.2 mm 2 mps 760 mmHg 94%
    07:00 +6°C° 1.6 mm 2 mps 759 mmHg 95%
    08:00 +6°C° 1.6 mm 2 mps 759 mmHg 95%
    09:00 +6°C° 1.6 mm 2 mps 758 mmHg 96%
    10:00 +6°C° 0.8 mm 2 mps 758 mmHg 95%
    11:00 +5°C° 0.8 mm 3 mps 758 mmHg 94%
    12:00 +7°C° 0.8 mm 3 mps 759 mmHg 93%
    13:00 +5°C° 0.1 mm 3 mps 759 mmHg 92%
    14:00 +5°C° 0.1 mm 4 mps 760 mmHg 91%
    15:00 +5°C° 0.1 mm 4 mps 761 mmHg 89%
    16:00 +5°C° 0.1 mm 5 mps 762 mmHg 88%
    17:00 +5°C° 0.1 mm 5 mps 763 mmHg 87%
    18:00 +4°C° 0.1 mm 6 mps 764 mmHg 85%
    19:00 +3°C° 0 mm 5 mps 765 mmHg 85%
    20:00 +3°C° 0 mm 4 mps 766 mmHg 84%
    21:00 +4°C° 0 mm 2 mps 767 mmHg 84%
    22:00 +4°C° 0 mm 2 mps 768 mmHg 85%
    23:00 +3°C° 0 mm 2 mps 768 mmHg 86%
    Show more